Weather History for Lawton, OK

Change the Weather History Date:

Sunday, November 6, 2011

  Actual Average Record
Temperature  
Mean Temperature 58 °F -  
Max Temperature 73 °F 67 °F 83 °F (1989)
Min Temperature 44 °F 42 °F 23 °F (1951)
Degree Days  
Heating Degree Days 6    
Growing Degree Days 8 (Base 50)    
Moisture  
Dew Point 43 °F    
Average Humidity 70    
Maximum Humidity 100    
Minimum Humidity 21    
Precipitation  
Precipitation 0.00 in - - ()
Sea Level Pressure  
Sea Level Pressure 29.92 in    
Wind  
Wind Speed 5 mph (South)    
Max Wind Speed 13 mph    
Max Gust Speed -    
Visibility 7 miles    
Events Fog    
Averages and records for this station are not official NWS values.
T = Trace of Precipitation, MM = Missing Value Source: NWS Daily Summary

Daily Weather History Graph

Daily Weather History Graph

Search for Another Location

Airport:

Trip Planner

Search our weather history database for the weather conditions in past years. The results will help you decide how hot, cold, wet, or windy it might be!

Date:

Astronomy

Nov. 06, 2011 Rise Set
Actual Time 6:58 AM CST 5:35 PM CST
Civil Twilight 6:32 AM CST 6:01 PM CST
Nautical Twilight 6:02 AM CST 6:31 PM CST
Astronomical Twilight 5:32 AM CST 7:01 PM CST
Moon 3:13 PM CST (11/6) 3:14 AM CST (11/6)
Length of Visible Light 11h 29m
Length of Day
10h 37m
Waxing Gibbous, 86% of the Moon is Illuminated
Nov 6
Waxing Gibbous
Nov 10
Full
Nov 18
Last Quarter
Nov 25
New
Dec 2
First Quarter

Hourly Weather History & Observations

Time (CST) Temp. Dew Point Humidity Pressure Visibility Wind Dir Wind Speed Gust Speed Precip Events Conditions
12:53 AM 57.0 °F 46.9 °F 69% 29.80 in 10.0 mi SSE 11.5 mph - N/A   Clear
1:53 AM 57.9 °F 48.9 °F 72% 29.80 in 10.0 mi SSE 11.5 mph - N/A   Clear
1:53 AM 57.0 °F 50.0 °F 77% 29.80 in 10.0 mi SSE 12.7 mph - N/A   Clear
2:53 AM 55.9 °F 51.1 °F 84% 29.83 in 10.0 mi SSE 9.2 mph - N/A   Clear
3:53 AM 53.1 °F 50.0 °F 89% 29.84 in 10.0 mi Calm Calm - N/A   Clear
5:53 AM 46.9 °F 45.0 °F 93% 29.91 in 5.0 mi Calm Calm - N/A   Clear
6:46 AM 44.6 °F 42.8 °F 93% 29.93 in 3.0 mi Calm Calm - N/A   Scattered Clouds
6:50 AM 44.6 °F 42.8 °F 93% 29.93 in 1.5 mi Calm Calm - N/A   Mostly Cloudy
6:53 AM 45.0 °F 43.0 °F 93% 29.93 in 0.5 mi Calm Calm - N/A Fog Fog
7:01 AM 44.6 °F 42.8 °F 93% 29.93 in 0.2 mi Calm Calm - N/A Fog Fog
7:11 AM 44.6 °F 42.8 °F 93% 29.93 in 0.2 mi Calm Calm - N/A Fog Fog
7:47 AM 46.4 °F 44.6 °F 93% 29.95 in 0.5 mi Calm Calm - N/A Fog Fog
7:53 AM 46.9 °F 46.0 °F 97% 29.95 in 0.5 mi Calm Calm - N/A Fog Fog
8:21 AM 50.0 °F 50.0 °F 100% 29.96 in 1.5 mi Calm Calm - N/A   Overcast
8:28 AM 51.8 °F 50.0 °F 94% 29.96 in 3.0 mi Calm Calm - N/A   Mostly Cloudy
8:40 AM 51.8 °F 51.8 °F 100% 29.96 in 10.0 mi Calm Calm - N/A   Scattered Clouds
8:53 AM 54.0 °F 52.0 °F 93% 29.96 in 10.0 mi Calm Calm - N/A   Clear
9:53 AM 64.0 °F 41.0 °F 43% 29.97 in 10.0 mi Variable 5.8 mph - N/A   Clear
10:53 AM 68.0 °F 34.0 °F 28% 29.97 in 10.0 mi Variable 6.9 mph - N/A   Clear
11:53 AM 69.1 °F 34.0 °F 27% 29.96 in 10.0 mi Variable 6.9 mph - N/A   Clear
12:53 PM 72.0 °F 30.0 °F 21% 29.93 in 10.0 mi SW 6.9 mph - N/A   Clear
1:53 PM 73.0 °F 30.9 °F 21% 29.91 in 10.0 mi South 11.5 mph - N/A   Clear
2:53 PM 73.0 °F 34.0 °F 24% 29.90 in 10.0 mi South 8.1 mph - N/A   Clear
3:53 PM 73.9 °F 37.0 °F 26% 29.90 in 10.0 mi South 11.5 mph - N/A   Clear
4:53 PM 72.0 °F 37.9 °F 29% 29.91 in 10.0 mi South 4.6 mph - N/A   Clear
7:53 PM 54.0 °F 44.1 °F 69% 29.96 in 10.0 mi Calm Calm - N/A   Clear
9:53 PM 51.1 °F 44.1 °F 77% 29.97 in 10.0 mi Calm Calm - N/A   Clear
10:53 PM 51.1 °F 44.1 °F 77% 29.96 in 10.0 mi Calm Calm - N/A   Clear